Location: Unspecified
(38.0000°N, 97.0000°W)
Time: 22:10:53
(UTC+00:00)

Daily predictions for brighter satellites

Satellite Brightness Start Highest point End
(mag) Time Altitude Azimuth Time Altitude Azimuth Time Altitude Azimuth
BREEZE-M DEB (TANK) 3.9 12:04:30 20° NW 12:08:10 85° NE 12:25:21 10° SE
USA 215 3.7 12:06:18 10° NNE 12:12:17 40° NNW 12:17:36 13° W
Nadezhda 4 Rocket 3.9 12:11:11 10° N 12:17:19 80° W 12:23:28 10° S
Cosmos 1812 Rocket 3.6 12:13:53 10° N 12:18:19 82° E 12:22:45 10° S
CZ-2D R/B 4.2 12:15:17 10° NNW 12:18:34 26° WNW 12:21:50 10° SW
ARIANE 5 R/B 3.5 12:15:26 10° NNW 12:19:38 26° WNW 12:23:50 10° WSW
Cosmos 1825 Rocket 4.4 12:15:28 10° S 12:19:45 54° E 12:24:01 10° NNE
COSMOS 2455 3.2 12:14:05 10° NNW 12:20:06 68° ENE 12:26:03 10° SE
Cosmos 1680 Rocket 3.8 12:17:27 10° SW 12:22:30 44° WNW 12:27:33 10° N
CZ-2D R/B 3.0 12:20:31 10° N 12:24:10 84° WNW 12:27:49 10° SSW
CZ-3 Stage 3 2.9 12:23:02 10° WSW 12:24:32 12° SSW 12:25:39 10° S
SeaSat 1 3.9 12:20:26 10° ESE 12:24:53 36° ENE 12:29:21 10° N
Cosmos 1758 Rocket 3.7 12:21:09 10° SSW 12:25:22 51° W 12:29:35 10° N
ARGOS 3.2 12:21:50 10° N 12:27:05 54° WNW 12:32:17 10° SSW
Cosmos 1371 Rocket 4.1 12:21:43 10° NNW 12:27:06 84° ENE 12:32:27 10° SSE
Cosmos 1782 3.1 12:28:29 10° N 12:32:22 69° E 12:36:13 10° SSE
SKYMED 2 4.5 12:29:01 10° SSW 12:32:44 28° W 12:36:29 10° NW
USA 281 4.2 12:28:09 10° N 12:33:08 24° NW 12:38:07 10° WSW
Cosmos 2112 Rocket 4.4 12:28:07 10° SW 12:33:09 42° WNW 12:38:12 10° N
PSLV R/B 3.9 12:29:26 10° N 12:33:32 43° WNW 12:37:35 10° SW
CZ-2C R/B 2.7 12:29:52 10° NNE 12:33:36 90° S 12:37:22 10° SSW
Spot 4 Rocket 4.3 12:29:44 10° N 12:34:38 45° WNW 12:39:30 10° SW
SJ-7 4.3 12:31:46 10° N 12:35:51 81° WNW 12:39:56 10° SSW
Cosmos 1464 Rocket 4.5 12:30:22 10° SW 12:35:56 36° WNW 12:41:33 10° N
Meteor 1-31 Rocket 3.8 12:32:19 10° NNE 12:35:59 50° E 12:39:40 10° S
DELTA 2 DEB (DPAF) 4.1 12:37:03 10° SSE 12:41:20 89° SW 12:45:39 10° NNW
Cosmos 1428 Rocket 4.5 12:37:54 10° N 12:44:06 76° W 12:50:13 10° S
USA 267 3.4 12:37:51 10° SE 12:44:23 78° NE 12:50:57 10° NW
Cosmos 2360 Rocket 3.0 12:41:08 10° WSW 12:46:03 30° WNW 12:50:59 10° N
Cosmos 1844 4.0 12:40:44 10° NW 12:46:05 46° WSW 12:51:22 10° S
ASTRO E2 4.2 12:43:08 10° WSW 12:46:10 25° S 12:49:13 10° SE
ERS-2 2.8 12:48:20 10° NNW 12:50:39 21° WNW 12:52:57 10° WSW
Cosmos 1420 Rocket 4.2 12:46:49 10° NNW 12:51:59 53° WSW 12:57:07 10° S
Cosmos 1048 Rocket 4.2 12:46:50 10° SSW 12:52:01 80° ESE 12:57:10 10° NNE
Cosmos 2219 Rocket 2.3 12:47:37 10° SW 12:53:07 53° WNW 12:58:39 10° NNE
SL-08 RB Rocket 4.4 12:49:30 10° N 12:53:35 33° WNW 12:57:41 10° SW
Cosmos 1624 Rocket 4.1 12:48:31 10° NNW 12:53:36 57° WSW 12:58:40 10° S
Cosmos 1607 4.4 23:25:33 10° S 23:31:29 47° ESE 23:37:33 10° NE
CORIOLIS 4.4 23:29:12 10° SE 23:34:18 48° ENE 23:39:25 10° N
SL-16 R/B 3.2 23:31:23 10° N 23:36:02 25° ENE 23:40:37 10° ESE
Meteor 2-16 Rocket 4.5 23:34:07 10° S 23:40:16 85° E 23:46:26 10° N
Cosmos 1238 Rocket 3.3 23:38:01 10° SSW 23:42:28 69° W 23:46:15 10° N
Cosmos 2279 Rocket 4.3 23:37:35 10° N 23:43:31 43° ENE 23:49:22 10° SSE
Hubble Space Telescope 2.8 23:45:18 10° SW 23:48:14 19° S 23:51:09 10° SE
ATLAS 5 CENTAUR R/B 2.4 23:44:07 10° NNW 23:49:36 88° WSW 23:56:19 10° SSE
Cosmos 1606 Rocket 4.3 23:46:19 10° SSW 23:50:43 58° W 23:55:07 10° N
Helios 1B rocket 3.5 23:48:42 10° S 23:52:28 47° W 23:56:17 10° NNW
Cosmos 1726 Rocket 3.9 23:50:00 10° SSW 23:54:25 73° W 23:58:52 10° N
CZ-4B R/B 3.5 23:51:12 10° SSE 23:54:47 62° ENE 23:58:20 10° N
Aureole 3 Rocket 3.0 23:49:44 10° N 23:54:49 79° E 23:58:30 10° S
Cosmos 1544 3.3 23:53:50 10° N 23:56:52 35° E 23:59:52 10° SSE
